SCP
0 0 0 0 0 0 0 0 0 0 0 0 0 0 0 0 0 0 0 0 0 0 0 0 0 0 0 0 0 0 0 0 0 0 0 0 0 0 0 0 0 0 0 0
0 0 0 0 0 0 0 0 0 0 0 0 0 0 0 0 0 0 0 0 0 0 0 0 0 0 0 0 0 0 0 0 0 0 0 0 0 0 0 0 0 0 0 0
0 0 0 0 0 0 0 0 0 0 0 0 0 0 0 -0 0 0 0 0 0 0 0 0 0 0 0 0 0 0 0 0 0 0 0 0 0 0 0 0 0 0 0 0
0 0 0 0 0 0 0 0 0 0 0 0 0 0 0 0 0 0 0 0 0 0 0 0 0 0 0 0 0 0 0 0 0 0 0 0 0 0 0 0 0 0 0 0
0 0 0 0 0 0 0 0 0 0 0 0 0 0 0 0 0 0 0 0 0 0 0 0 0 0 0 0 0 0 0 0 0 0 0 0 0 0 0 0 0 0 0 0
0 0 0 0 0 0 0 0 0 0 0 0 0 0 0 0 0 0 0 0 0 0 0 0 0 0 0 0 0 0 0 0 0 0 0 0 0 0 0 0 0 0 0 0
0 0 0 0 0 0 0 0 0 0 0 0 0 0 0 0 0 0 0 0 0 0 0 0 0 0 0 0 0 0 0 0 0 0 0 0 0 0 0 0 0 0 0 0
0 0 0 0 0 0 0 0 0 0 0 0 0 0 0 0 0 0 0 0 0 0 0 0 0 0 0 0 0 0 0 0 0 0 0 0 0 0 0 0 0 0 0 0
0 0 0 0 0 0 0 0 0 0 0 0 0 0 0 0 0 0 0 0 0 0 0 0 0 0 0 0 0 0 0 0 0 0 0 0 0 0 0 0 0 0 0 0
0 0 0 0 0 0 0 0 0 0 0 0 0 0 0 0 0 0 0 0 0 0 0 0 0 0 0 0 0 0 0 0 0 0 0 0 0 0 0 0 0 0 0 0
-0 -0 0 0 0 0 0 0 0 0 0 0 0 0 0 0 0 0 0 0 0 0 0 0 0 0 0 0 0 0 0 0 0 0 0 0 0 0 0 0 0 0 0 0
-0 -0 0 0 0 -0 0 0 0 0 0 0 0 0 0 0 0 0 0 0 0 0 0 0 0 0 0 0 0 0 0 0 0 0 0 0 0 0 0 0 0 0 0 0
-0 -0 0 0 -0 -0 -0 0 0 0 0 0 0 0 0 0 0 0 0 0 0 0 0 0 0 0 0 0 0 0 0 0 0 0 0 0 0 0 0 0 0 0 0 0
-0 -0 -0 -0 -0 -0 -0 0 0 0 0 0 0 0 0 0 0 0 0 0 0 0 0 0 0 0 0 0 0 0 0 0 0 0 0 0 0 0 0 0 0 0 0 0
0 -0 -0 -0 -0 -0 0 0 0 0 0 0 0 0 0 0 0 0 0 0 0 0 0 0 0 0 0 0 0 0 0 0 0 0 0 0 0 0 0 0 0 0 0 0
0 -0 -0 -0 -0 0 0 0 0 0 0 0 0 0 0 0 0 0 0 0 0 0 0 0 0 0 0 0 0 0 0 0 0 0 0 0 0 0 0 0 0 0 0 0
0 0 0 0 -0 0 0 0 0 0 0 0 0 0 0 0 0 0 0 0 0 -0 -0 -0 -0 -0 0 0 0 0 0 0 0 0 0 0 0 0 0 0 0 0 0 0
0 0 0 0 0 0 0 0 0 0 0 0 0 0 0 0 0 0 0 0 0 0 -0 0 0 0 0 0 0 0 0 0 0 0 0 0 0 0 0 0 0 0 0 0
0 0 0 0 0 0 0 0 0 0 0 0 0 0 0 0 0 0 0 0 0 0 0 0 0 0 0 0 0 0 0 0 0 0 0 0 0 0 0 0 0 0 0 0
0 0 0 0 0 0 0 0 0 0 0 0 0 0 0 0 0 -0 -0 -0 0 0 0 0 0 0 0 0 0 0 0 0 0 0 0 0 0 0 0 0 0 0 0 0
0 0 -0 0 0 0 0 0 0 0 0 0 0 0 0 0 0 0 0 0 0 0 0 0 0 0 0 0 0 0 0 0 0 0 0 0 0 0 0 0 0 0 0 0
0 0 0 0 0 0 0 0 0 0 0 0 0 0 0 0 0 0 0 0 0 0 0 0 0 0 0 0 0 0 0 0 0 0 0 0 0 0 0 0 0 0 0 0
0 0 0 0 0 0 0 0 0 0 0 0 0 0 0 0 0 0 0 0 0 0 0 0 0 0 0 0 0 0 0 0 0 0 0 0 0 0 0 0 0 0 0 0
0 0 0 0 0 0 0 0 0 0 0 0 0 0 0 0 0 0 0 0 0 0 0 0 0 0 0 0 0 0 0 0 0 0 0 0 0 0 0 0 0 0 0 0
0 0 0 0 0 0 0 0 0 0 0 0 0 0 0 0 0 0 0 0 0 0 0 0 0 0 0 0 0 0 0 0 0 0 0 0 0 0 0 0 0 0 0 0
0 0 0 0 0 0 0 0 0 0 0 0 0 0 0 0 0 0 0 0 0 0 0 0 0 0 0 0 0 0 0 0 0 0 0 0 0 0 0 0 0 0 0 0
0 0 0 0 0 0 0 0 0 0 0 0 0 0 0 0 0 0 0 0 0 0 0 0 0 0 0 0 0 0 0 0 0 0 0 0 0 0 0 0 0 0 0 0
Wind_Speed
6 4 4 7 8 8 9 9 9 9 9 9 6 5 3 2 2 1 1 1 2 2 2 2 2 2 2 2 2 2 2 2 2 2 1 1 1 1 1 1 2 2 2 2
4 5 6 9 11 11 11 10 10 9 11 6 4 2 2 2 2 2 3 3 3 3 2 3 3 3 2 2 2 2 3 3 2 2 1 1 1 1 1 1 1 1 1 2
4 2 2 9 9 10 7 7 8 11 10 3 2 2 3 3 3 3 4 4 4 4 4 4 4 3 3 3 2 2 2 2 2 2 1 1 1 1 2 2 2 2 2 2
2 1 9 8 2 5 6 5 5 4 4 4 4 3 2 2 2 3 2 3 3 3 3 2 2 2 2 1 1 2 2 2 2 2 2 2 1 2 2 2 2 2 2 3
3 5 8 6 2 3 4 3 2 4 4 2 2 1 3 2 2 2 3 2 3 3 3 2 1 2 1 1 1 2 2 3 3 3 3 3 3 3 2 2 3 3 3 3
5 5 8 5 3 1 3 3 2 2 2 2 2 1 4 3 2 2 2 2 2 1 1 1 2 1 1 2 2 3 4 3 3 3 4 4 4 3 2 3 3 3 3 3
6 6 7 5 3 2 3 5 1 1 1 1 2 4 4 2 2 2 2 2 2 1 1 2 2 1 2 2 3 4 3 2 2 3 4 4 3 2 2 3 3 3 3 3
5 6 8 2 2 3 4 1 0 1 1 1 2 3 3 2 3 2 2 3 2 1 2 2 2 1 2 3 4 3 2 2 3 3 3 2 2 3 3 3 3 3 3 3
6 6 2 1 2 2 1 1 2 2 3 3 3 4 4 4 4 3 3 3 2 2 3 3 2 2 3 5 3 2 2 3 3 3 3 3 3 3 3 2 2 3 3 3
2 3 2 2 1 1 1 2 3 3 3 3 4 5 5 4 4 3 3 3 2 2 2 4 4 3 4 4 2 2 3 3 3 3 3 3 3 3 3 3 3 3 3 4
3 3 2 2 2 2 2 2 3 4 4 3 3 4 4 4 4 4 3 3 3 3 4 4 4 3 3 3 2 2 3 3 3 3 3 3 3 3 4 4 5 5 4 4
5 5 4 5 4 3 3 3 3 3 3 3 3 4 4 3 3 2 2 2 2 3 3 4 4 4 4 3 2 3 3 3 2 2 2 3 3 4 5 6 8 9 8 7
5 4 4 4 4 3 3 4 3 3 3 4 3 3 3 3 3 2 2 2 3 3 3 4 4 4 4 4 3 3 4 4 3 3 3 3 3 3 4 5 6 8 9 10
4 2 3 4 4 4 4 3 3 2 3 3 3 3 3 3 3 3 3 4 3 3 3 3 4 5 5 4 3 4 4 4 4 3 3 3 4 4 4 4 5 4 6 9
4 4 5 4 3 3 3 2 2 3 3 4 3 3 3 3 4 4 4 3 3 3 4 4 4 6 5 4 4 4 4 3 3 3 3 4 4 4 4 5 5 5 4 5
3 3 3 3 4 4 3 3 4 4 4 4 4 4 4 4 4 4 4 3 3 4 5 5 5 6 5 4 4 4 4 6 5 3 3 3 4 4 4 4 5 5 5 5
3 3 3 4 4 5 4 5 5 5 4 5 5 5 4 4 4 5 5 4 4 5 6 6 6 6 4 4 4 4 3 4 6 4 4 4 4 4 5 5 5 6 6 6
3 4 4 4 4 5 5 4 4 4 5 5 5 4 4 4 5 6 6 4 4 5 6 6 6 5 5 4 4 3 3 3 4 4 4 4 5 5 5 5 6 7 6 7
2 3 4 4 4 4 4 5 5 5 5 4 4 5 5 5 6 6 5 4 5 6 6 5 7 6 5 5 5 3 4 4 4 4 4 7 6 5 5 6 6 6 6 6
4 4 4 5 4 4 5 5 5 5 5 4 5 5 6 6 5 5 5 5 6 6 5 5 5 4 5 5 6 3 4 4 5 5 5 5 5 5 5 6 6 6 6 6
5 5 5 5 5 5 5 5 4 5 5 5 5 6 6 6 5 4 4 6 6 5 5 7 5 4 4 5 6 4 4 4 5 5 5 5 5 6 6 6 6 6 6 6
5 5 6 5 5 6 5 4 4 5 5 5 5 5 6 6 5 5 5 6 6 7 4 3 3 6 7 7 4 4 4 5 5 4 5 5 5 6 6 6 6 6 6 6
5 5 6 6 6 6 6 5 5 5 5 6 6 6 6 6 4 4 6 4 4 7 5 4 6 9 10 5 3 4 5 5 5 5 5 5 6 6 6 7 6 6 6 6
5 5 6 5 5 5 6 6 5 5 5 6 5 5 5 5 4 4 5 7 9 9 5 7 10 10 9 4 3 4 4 4 5 5 5 5 5 6 6 6 6 6 6 7
5 5 5 5 5 5 5 6 5 5 5 4 5 5 4 4 4 5 4 5 8 8 5 7 10 10 6 3 3 4 4 5 5 5 5 5 5 6 6 6 6 6 6 6
5 4 4 4 4 4 4 4 4 4 4 5 5 4 4 3 4 4 4 4 6 7 6 4 5 6 4 4 4 4 4 5 6 5 5 5 6 6 6 6 7 6 6 6
5 4 4 4 4 3 3 4 4 5 4 5 6 5 4 4 4 4 4 4 4 4 4 4 4 4 4 4 4 4 4 4 5 5 5 5 5 6 6 7 6 6 5 5
Wind_Direction
243 251 235 242 242 219 210 210 215 237 239 253 252 244 239 229 225 222 242 243 234 240 252 260 263 273 260 244 225 198 180 192 215 225 215 191 182 185 188 185 194 201 203 216
259 245 246 257 248 233 232 230 232 244 257 253 246 220 232 237 221 230 241 245 243 246 243 242 240 242 252 248 237 204 193 204 207 199 190 201 215 195 190 203 211 196 200 216
253 272 307 259 232 217 217 215 206 227 239 232 217 208 220 229 224 231 248 255 247 244 239 237 237 232 233 241 228 204 209 215 206 197 197 217 222 203 207 218 221 220 221 219
226 181 240 245 222 199 203 233 220 224 232 215 211 223 248 236 211 239 257 262 260 248 252 257 262 262 251 251 212 206 216 231 229 220 216 220 215 225 233 226 220 227 230 228
185 223 264 282 258 184 194 254 241 221 237 225 170 58 323 292 242 236 246 257 259 248 239 242 258 266 253 264 241 223 229 234 231 222 219 220 229 241 244 229 233 233 229 228
189 211 236 250 271 258 121 249 269 212 233 225 151 233 271 284 282 285 291 290 286 275 292 269 265 242 212 240 241 243 240 236 231 220 217 221 228 239 246 235 235 238 236 229
211 229 252 260 287 92 174 237 256 216 224 176 214 230 246 273 297 293 297 299 297 290 285 268 262 213 226 241 247 255 255 245 239 230 226 225 227 234 240 245 244 241 246 249
197 221 244 254 103 174 211 220 337 331 265 239 249 260 266 271 272 279 290 302 304 308 296 289 271 227 241 254 259 265 261 249 248 246 242 236 228 243 244 240 247 250 251 263
200 219 252 205 175 204 186 242 282 274 269 251 264 268 268 267 263 266 265 276 280 281 295 296 278 238 243 259 262 259 261 253 251 254 250 240 229 235 246 242 241 250 244 255
242 264 284 288 283 282 240 262 275 270 269 270 270 275 275 272 267 264 264 267 271 275 285 290 286 269 251 259 256 244 257 264 260 255 253 251 242 231 228 231 237 244 244 250
247 258 289 277 260 258 272 280 285 287 278 265 268 275 273 271 265 257 258 260 251 251 259 271 282 286 279 265 250 250 257 258 260 254 249 252 248 238 233 232 230 237 239 237
234 231 223 248 254 249 246 256 262 274 291 289 267 268 274 272 265 258 260 265 268 270 270 279 285 286 286 274 246 243 257 258 255 255 255 253 258 273 257 250 262 263 260 255
225 237 228 237 246 243 239 252 260 260 261 276 280 267 268 273 269 263 263 261 263 268 274 281 287 287 289 284 263 249 250 257 256 254 253 254 254 261 280 285 270 269 269 269
241 229 252 246 248 251 246 251 259 274 278 272 270 274 274 275 275 268 263 263 264 268 275 279 282 284 288 287 272 262 258 257 254 251 252 252 252 253 256 266 280 282 277 275
261 234 233 250 256 257 253 252 266 278 281 284 276 273 268 263 263 264 267 268 271 274 277 278 278 282 286 279 269 265 261 256 251 249 249 251 252 252 254 255 261 270 276 278
274 271 253 250 256 261 261 255 254 265 271 274 277 273 266 261 262 266 266 256 251 262 266 266 269 275 280 274 270 268 262 260 261 258 254 254 252 253 257 258 262 263 265 266
254 264 258 260 263 265 258 251 249 254 260 264 266 269 273 276 279 275 270 261 250 257 261 261 267 274 274 268 264 266 265 263 263 262 253 251 250 249 250 253 258 261 261 262
238 245 246 242 250 262 270 268 259 257 256 260 268 271 268 265 268 270 270 273 274 274 269 262 264 273 273 269 264 261 259 260 257 255 256 254 254 250 250 253 257 262 267 268
288 272 272 268 262 256 260 264 265 265 267 268 267 267 267 267 267 270 271 270 270 276 278 267 273 274 271 269 268 260 258 261 264 262 258 264 268 257 254 255 257 259 264 266
298 288 281 280 276 264 266 271 274 277 277 270 270 275 278 277 273 273 272 267 260 259 267 275 276 269 269 268 269 259 256 258 261 264 263 259 260 261 260 261 261 262 262 261
294 292 288 286 286 282 273 270 271 273 277 272 265 268 272 277 274 269 269 277 279 269 267 275 273 266 266 267 271 259 255 257 259 260 263 265 266 266 265 264 265 265 264 263
288 288 288 288 287 288 285 277 269 271 275 276 273 272 276 280 281 275 260 258 273 283 280 267 263 268 275 280 265 258 258 258 260 261 262 264 265 268 269 268 266 266 264 262
285 285 287 286 283 284 289 284 275 272 272 273 273 272 270 270 268 269 278 274 268 279 280 266 271 277 283 281 262 259 260 261 263 264 264 265 266 268 270 271 269 268 266 264
290 290 291 292 294 295 295 293 287 281 275 274 271 268 267 274 275 261 261 280 287 288 279 276 283 286 290 278 263 262 263 265 266 266 267 267 267 268 270 273 274 273 271 268
291 291 293 298 297 291 288 292 294 290 287 286 282 276 267 258 265 278 277 275 284 292 287 286 289 291 288 273 267 266 266 266 268 269 266 268 270 272 273 273 272 274 273 270
297 296 292 286 283 286 292 298 297 298 298 297 296 290 283 279 274 276 277 277 279 288 288 282 282 285 277 270 268 268 268 275 280 277 272 272 273 273 274 275 275 274 273 269
303 300 300 300 298 295 294 292 290 292 293 292 295 296 294 292 288 284 280 279 281 282 282 282 278 272 271 271 272 272 271 271 271 273 274 273 272 272 275 276 277 277 275 270